Opa-locka Executive Airport Miami US
ICAO: KOPF
IATA: OPF
Category: Medium
Scheduled Services: No

Elevation: 8 ft
TransAlt. 18000 ft.

Airport Communications:
MIAMI APP/DEP:128.6
ATIS:125.9
CLNC DEL:119.2
CTAF:120.7
GND:121.9
CG MIAMI AIR:123.1
TWR:120.7

KOPF Zoom In..

If Map Doesn't Load, Click Here

Runways:

(A) RW 09L length 8002 ft width 150 ft
ILS 110.50 / hdg 89

(B) RW 09R length 4309 ft width 100 ft
---- / hdg 89

(C) RW 12 length 6800 ft width 150 ft
ILS 111.55 / hdg 124

(D) RW 27L length 4309 ft width 100 ft
---- / hdg 269

(E) RW 27R length 8002 ft width 150 ft
ILS 111.35 / hdg 269

(F) RW 30 length 6800 ft width 150 ft
---- / hdg 304

Location; KOPF
Day. 26 / Time. 09.53 Zulu
* Altimeter: 30.05
* Temperature: 27° c. 80.6°f.
* Wind from: 060° Speed 03 kn.
Dewpoint: 25° c.
Visibility: 10 Statute Miles.
Clouds: Clear (automated report).

KOPF 260953Z AUTO 06003KT 10SM CLR 27/25 A3005 RMK AO2 SLP176 T02670250


Wind From 060°
Speed 03 kn.

 
 
jpsmedia.com for Web Design worldairports.se 2018   terms of use